AirNav   Pilot Hours Calculator
 
 976 users online  

51K Cedar Air Park
Olathe, Kansas, USA

GOING TO OLATHE?


FAA INFORMATION EFFECTIVE 07 OCTOBER 2021

Location

FAA Identifier: 51K
Lat/Long: 38-55-51.9400N 094-53-05.3200W
38-55.865667N 094-53.088667W
38.9310944,-94.8848111
(estimated)
Elevation: 1024 ft. / 312 m (estimated)
Variation: 05E (1985)
From city: 4 miles NW of OLATHE, KS
Time zone: UTC -5 (UTC -6 during Standard Time)
Zip code: 66061

Airport Operations

Airport use: Open to the public
Activation date: 10/1967
Control tower: no
ARTCC: KANSAS CITY CENTER
FSS: COLUMBIA FLIGHT SERVICE STATION
NOTAMs facility: COU (NOTAM-D service available)
Attendance: UNATNND
Wind indicator: yes
Segmented circle: no

Airport Communications

CTAF/UNICOM: 122.7
WX ASOS at IXD (6 nm S): 135.325 (913-780-6987)
WX ASOS at OJC (9 nm SE): PHONE 913-780-6969
WX ASOS at LWC (16 nm W): 121.225 (785-749-1309)
WX ASOS at MKC (18 nm NE): PHONE 816-329-2843

Nearby radio navigation aids

VOR radial/distance  VOR name  Freq  Var
MCIr193/22.3KANSAS CITY VORTAC113.2505E
TOPr107/33.3TOPEKA VORTAC117.8005E
ANXr247/36.6NAPOLEON VORTAC114.0007E

 
NDB name  Hdg/Dist  Freq  Var  ID
NEWBN081/12.633804EJZ .--- --..
HERBB323/12.742004EPK .--. -.-

Airport Services

Parking: tiedowns
Bottled oxygen: NONE
Bulk oxygen: NONE

Runway Information

Runway 17/35

Dimensions: 2440 x 75 ft. / 744 x 23 m
Surface: turf, in good condition
Runway edge markings: RY OUTLINED WITH CONC PADS AT 300 FT INTRVLS. RY ENDS MKD WITH YELLOW CONC PADS.
RUNWAY 17  RUNWAY 35
Latitude: 38-56.066333N38-55.665000N
Longitude: 094-53.100500W094-53.076833W
Elevation: 998.0 ft.1020.0 ft.
Traffic pattern: leftleft
Runway heading: 172 magnetic, 177 true352 magnetic, 357 true
Obstructions: 35 ft. tree, 232 ft. from runway, 99 ft. right of centerline, 6:1 slope to clear60 ft. trees, 145 ft. from runway, 84 ft. right of centerline, 2:1 slope to clear

Airport Ownership and Management from official FAA records

Ownership: Privately-owned
Owner: BROGDEN AVIATION LLC
25900 COLLEGE BLVD.
OLATHE, KS 66061
Phone 913-782-5176
Manager: MIKE WILLIAMS
25900 COLLEGE BLVD.
OLATHE, KS 66061
Phone 913-782-5176

Airport Operational Statistics

Aircraft based on the field: 3
Single engine airplanes: 3
    
Aircraft operations: avg 21/week *
91% local general aviation
9% transient general aviation
* for 12-month period ending 31 August 2018

Additional Remarks

FOR CD CTC KANSAS CITY APCH AT 816-329-2710.
GOLF COURSE N END OF RY 17 CAN BE MISTAKEN FOR ARPT.
WILDLIFE ON & INVOF ARPT.
TREES BOTH SIDES OF RWY.

Instrument Procedures

There are no published instrument procedures at 51K.

Some nearby airports with instrument procedures:

KIXD - New Century AirCenter Airport (6 nm S)
KOJC - Johnson County Executive Airport (9 nm SE)
KLWC - Lawrence Regional Airport (16 nm W)
KMKC - Charles B Wheeler Downtown Airport (18 nm NE)
KMCI - Kansas City International Airport (23 nm N)
 
Loc | Ops | Rwys | IFR | FBO | Links
Com | Nav | Svcs | Stats | Notes
Area around 51K (Cedar Air Park)
 
Road maps at: MapQuest Bing Google
 
Aerial photo
WARNING: Photo may not be current or correct
Aerial photo of 51K (Cedar Air Park)
Photo taken 27-Oct-2012
looking south.

Do you have a better or more recent aerial photo of Cedar Air Park that you would like to share? If so, please send us your photo.

 
Sectional chart

 
Airport distance calculator
Flying to Cedar Air Park? Find the distance to fly.

From to 51K

Sunrise and sunset
Times for 19-Oct-2021
 Local
(UTC-5)
 Zulu
(UTC)
Morning civil twilight07:0712:07
Sunrise07:3412:34
Sunset18:3523:35
Evening civil twilight19:0200:02

Current date and time
Zulu (UTC)  19-Oct-2021 12:24:18
Local (UTC-5)  19-Oct-2021 07:24:18
 
METAR
KIXD 
7nm S 
191153Z 15010KT 10SM CLR 12/07 A3000 RMK AO2 SLP156 T01220067 10144 20122 55004 $
KOJC 
9nm SE 
191153Z 17010KT 10SM CLR 12/08 A3000 RMK AO2 SLP155 T01170078 10144 20117 56004
KLWC 
16nm W 
191152Z AUTO 16008KT 10SM FEW120 12/08 A2998 RMK AO1 SLP150 T01220083 10150 20117 55003
KMKC 
17nm NE 
191154Z VRB03KT 10SM CLR 14/07 A3000 RMK AO2 SLP155 T01390072 10161 20133 55003
TAF
KIXD 
7nm S 
191120Z 1912/2012 17010KT P6SM SCT120 FM191500 17015G28KT P6SM FEW100 FM192300 17012KT P6SM SCT100 FM200700 18012KT P6SM SCT060
KMKC 
17nm NE 
191120Z 1912/2012 17012KT P6SM SCT120 FM191600 17015G25KT P6SM SCT120 FM192300 17012KT P6SM FEW100 FM200600 18012KT P6SM SCT060
NOTAMs
Click for the latest NOTAMs
NOTAMs are issued by the DoD/FAA and will open in a separate window not controlled by AirNav.

 

 
 

Would you like to see your business listed on this page?

 If your business provides an interesting product or service to pilots, flight crews, aircraft, or users of the Cedar Air Park, you should consider listing it here.  To start the listing process, click on the button below
 
Add a business
 

Other Pages about Cedar Air Park

Update a link
 
Copyright © AirNav, LLC. All rights reserved. Privacy Policy  Contact